Terminal Aerodrome Forecast
Issued by NWS Corpus Christi, TX

Home | Current Version | Previous Version | Text Only | Print | Product List | Glossary On
Versions: 1 2 3 4 5 6 7 8 9 10 11 12 13 14 15 16
000
FTUS44 KCRP 162300
TAFVCT
TAF
KVCT 162328Z 1700/1724 VRB06KT P6SM VCSH FEW025 BKN070 OVC150
      TEMPO 1700/1702 5SM -SHRA OVC030
     FM170800 VRB03KT P6SM BKN015 OVC100
      TEMPO 1710/1714 5SM -SHRA BR
     FM171400 16009KT P6SM VCTS SCT025CB BKN035 PROB30 1719/1724 4SM
      TSRA BKN028CB=

USA.gov is the U.S. government's official web portal to all federal, state and local government web resources and services.